When you browse on this site, cookies collect data to enhance your experience and personalize the content and advertising you see.
Visit our Privacy Policy to learn more. By continuing to use the site, you agree to this use of cookies and data.
  • In Hungary
  • List of Countries
  • For 7 days
  • Water Temperature
  • Satellite Maps
  • Weather Map
  • News
  • Weather Widgets
  • user-avatar
    Login

    Hourly Weather Tepeyanco

    Today, 18 February, Monday

    Time Temperature Precipitation Wind Pressure Humidity
    00:00 +14°C° 0 mm 0 mps 580 mmHg 51%
    01:00 +14°C° 0 mm 0 mps 580 mmHg 54%
    02:00 +13°C° 0 mm 0 mps 579 mmHg 56%
    03:00 +13°C° 0 mm 0 mps 579 mmHg 58%
    04:00 +14°C° 0 mm 1 mps 579 mmHg 60%
    05:00 +13°C° 0 mm 1 mps 579 mmHg 62%
    06:00 +15°C° 0 mm 1 mps 580 mmHg 56%
    07:00 +18°C° 0 mm 1 mps 581 mmHg 50%
    08:00 +19°C° 0 mm 1 mps 582 mmHg 44%
    09:00 +20°C° 0 mm 2 mps 583 mmHg 37%
    10:00 +22°C° 0 mm 3 mps 584 mmHg 31%
    11:00 +25°C° 0 mm 4 mps 585 mmHg 24%
    12:00 +26°C° 0 mm 4 mps 584 mmHg 24%
    13:00 +26°C° 0 mm 5 mps 584 mmHg 23%
    14:00 +26°C° 0 mm 6 mps 583 mmHg 23%
    15:00 +25°C° 0 mm 5 mps 583 mmHg 26%
    16:00 +23°C° 0 mm 5 mps 582 mmHg 29%
    17:00 +22°C° 0 mm 4 mps 582 mmHg 32%
    18:00 +20°C° 0.1 mm 3 mps 581 mmHg 35%
    19:00 +19°C° 0.1 mm 2 mps 581 mmHg 38%
    20:00 +18°C° 0.1 mm 1 mps 581 mmHg 41%
    21:00 +18°C° 0.1 mm 1 mps 581 mmHg 45%
    22:00 +16°C° 0.1 mm 1 mps 581 mmHg 48%
    23:00 +16°C° 0.1 mm 1 mps 581 mmHg 51%

    Tomorrow, 19 February, Tuesday

    Time Temperature Precipitation Wind Pressure Humidity
    00:00 +15°C° 0 mm 1 mps 580 mmHg 58%
    01:00 +14°C° 0 mm 1 mps 580 mmHg 64%
    02:00 +14°C° 0 mm 1 mps 579 mmHg 71%
    03:00 +13°C° 0 mm 1 mps 579 mmHg 71%
    04:00 +13°C° 0 mm 1 mps 579 mmHg 71%
    05:00 +12°C° 0 mm 1 mps 578 mmHg 70%
    06:00 +14°C° 0 mm 2 mps 579 mmHg 62%
    07:00 +15°C° 0 mm 2 mps 580 mmHg 55%
    08:00 +17°C° 0 mm 3 mps 581 mmHg 47%
    09:00 +19°C° 0 mm 4 mps 582 mmHg 40%
    10:00 +20°C° 0 mm 5 mps 583 mmHg 33%
    11:00 +22°C° 0 mm 6 mps 583 mmHg 26%
    12:00 +23°C° 0 mm 6 mps 583 mmHg 23%
    13:00 +23°C° 0 mm 6 mps 582 mmHg 20%
    14:00 +23°C° 0 mm 7 mps 581 mmHg 17%
    15:00 +22°C° 0 mm 6 mps 581 mmHg 18%
    16:00 +21°C° 0 mm 5 mps 580 mmHg 20%
    17:00 +20°C° 0 mm 4 mps 580 mmHg 22%
    18:00 +19°C° 0 mm 3 mps 580 mmHg 25%
    19:00 +17°C° 0 mm 2 mps 579 mmHg 28%
    20:00 +16°C° 0 mm 1 mps 579 mmHg 31%
    21:00 +15°C° 0 mm 1 mps 579 mmHg 33%
    22:00 +15°C° 0 mm 1 mps 579 mmHg 36%
    23:00 +14°C° 0 mm 1 mps 579 mmHg 38%

    Day after tomorrow, 20 February, Wednesday

    Time Temperature Precipitation Wind Pressure Humidity
    00:00 +14°C° 0 mm 1 mps 578 mmHg 41%
    01:00 +13°C° 0 mm 1 mps 577 mmHg 43%
    02:00 +12°C° 0 mm 1 mps 577 mmHg 46%
    03:00 +12°C° 0 mm 1 mps 577 mmHg 46%
    04:00 +12°C° 0 mm 1 mps 576 mmHg 47%
    05:00 +11°C° 0 mm 1 mps 576 mmHg 48%
    06:00 +13°C° 0 mm 1 mps 577 mmHg 44%
    07:00 +14°C° 0 mm 1 mps 579 mmHg 40%
    08:00 +16°C° 0 mm 1 mps 580 mmHg 36%
    09:00 +18°C° 0 mm 2 mps 580 mmHg 32%
    10:00 +20°C° 0 mm 3 mps 581 mmHg 28%
    11:00 +22°C° 0 mm 4 mps 582 mmHg 24%
    12:00 +22°C° 0 mm 4 mps 581 mmHg 22%
    13:00 +23°C° 0 mm 5 mps 581 mmHg 20%
    14:00 +23°C° 0 mm 6 mps 580 mmHg 19%
    15:00 +22°C° 0 mm 5 mps 580 mmHg 21%
    16:00 +21°C° 0 mm 5 mps 579 mmHg 22%
    17:00 +20°C° 0 mm 5 mps 579 mmHg 24%
    18:00 +18°C° 0 mm 4 mps 579 mmHg 27%
    19:00 +17°C° 0 mm 3 mps 579 mmHg 31%
    20:00 +15°C° 0 mm 2 mps 579 mmHg 34%
    21:00 +15°C° 0 mm 2 mps 579 mmHg 35%
    22:00 +14°C° 0 mm 2 mps 579 mmHg 37%
    23:00 +14°C° 0 mm 2 mps 578 mmHg 38%

    21 February, Thursday

    Time Temperature Precipitation Wind Pressure Humidity
    00:00 +13°C° 0 mm 2 mps 578 mmHg 40%
    01:00 +12°C° 0 mm 1 mps 577 mmHg 42%
    02:00 +12°C° 0 mm 1 mps 577 mmHg 44%
    03:00 +11°C° 0 mm 1 mps 577 mmHg 46%
    04:00 +11°C° 0 mm 1 mps 577 mmHg 47%
    05:00 +11°C° 0 mm 1 mps 577 mmHg 48%
    06:00 +12°C° 0 mm 1 mps 578 mmHg 44%
    07:00 +14°C° 0 mm 2 mps 579 mmHg 39%
    08:00 +16°C° 0 mm 2 mps 580 mmHg 34%
    09:00 +18°C° 0 mm 3 mps 581 mmHg 29%
    10:00 +20°C° 0 mm 4 mps 582 mmHg 25%
    11:00 +22°C° 0 mm 4 mps 582 mmHg 20%
    12:00 +23°C° 0 mm 5 mps 582 mmHg 18%
    13:00 +23°C° 0 mm 5 mps 581 mmHg 17%
    14:00 +25°C° 0 mm 5 mps 581 mmHg 16%
    15:00 +23°C° 0 mm 5 mps 580 mmHg 18%
    16:00 +22°C° 0 mm 5 mps 580 mmHg 19%
    17:00 +21°C° 0 mm 5 mps 580 mmHg 21%
    18:00 +19°C° 0 mm 4 mps 579 mmHg 24%
    19:00 +17°C° 0 mm 3 mps 579 mmHg 27%
    20:00 +15°C° 0 mm 2 mps 579 mmHg 31%
    21:00 +15°C° 0 mm 1 mps 579 mmHg 32%
    22:00 +14°C° 0 mm 1 mps 579 mmHg 33%
    23:00 +13°C° 0 mm 0 mps 579 mmHg 35%

    22 February, Friday

    Time Temperature Precipitation Wind Pressure Humidity
    00:00 +13°C° 0 mm 1 mps 578 mmHg 36%
    01:00 +13°C° 0 mm 1 mps 578 mmHg 38%
    02:00 +12°C° 0 mm 1 mps 578 mmHg 39%
    03:00 +12°C° 0 mm 1 mps 578 mmHg 40%
    04:00 +12°C° 0 mm 1 mps 578 mmHg 42%
    05:00 +11°C° 0 mm 1 mps 578 mmHg 44%
    06:00 +13°C° 0 mm 1 mps 579 mmHg 39%
    07:00 +14°C° 0 mm 0 mps 580 mmHg 35%
    08:00 +16°C° 0 mm 0 mps 582 mmHg 30%
    09:00 +20°C° 0 mm 1 mps 582 mmHg 25%
    10:00 +21°C° 0 mm 2 mps 583 mmHg 21%
    11:00 +24°C° 0 mm 3 mps 584 mmHg 16%
    12:00 +24°C° 0 mm 3 mps 583 mmHg 16%
    13:00 +25°C° 0 mm 4 mps 583 mmHg 15%
    14:00 +26°C° 0 mm 4 mps 582 mmHg 15%
    15:00 +25°C° 0 mm 4 mps 582 mmHg 18%
    16:00 +22°C° 0 mm 4 mps 581 mmHg 20%
    17:00 +21°C° 0 mm 4 mps 581 mmHg 23%
    18:00 +20°C° 0 mm 3 mps 581 mmHg 26%
    19:00 +18°C° 0 mm 2 mps 581 mmHg 29%
    20:00 +16°C° 0 mm 1 mps 580 mmHg 32%
    21:00 +16°C° 0 mm 1 mps 580 mmHg 34%
    22:00 +15°C° 0 mm 1 mps 580 mmHg 36%
    23:00 +14°C° 0 mm 0 mps 580 mmHg 38%

    23 February, Saturday

    Time Temperature Precipitation Wind Pressure Humidity
    00:00 +13°C° 0 mm 0 mps 579 mmHg 40%
    01:00 +13°C° 0 mm 0 mps 579 mmHg 42%
    02:00 +13°C° 0 mm 1 mps 579 mmHg 44%
    03:00 +13°C° 0 mm 1 mps 579 mmHg 44%
    04:00 +12°C° 0 mm 0 mps 579 mmHg 45%
    05:00 +11°C° 0 mm 0 mps 579 mmHg 45%
    06:00 +13°C° 0 mm 0 mps 580 mmHg 42%
    07:00 +14°C° 0 mm 0 mps 581 mmHg 38%
    08:00 +16°C° 0 mm 0 mps 582 mmHg 34%
    09:00 +20°C° 0 mm 1 mps 583 mmHg 32%
    10:00 +22°C° 0 mm 1 mps 583 mmHg 29%
    11:00 +24°C° 0 mm 1 mps 584 mmHg 26%
    12:00 +24°C° 0 mm 2 mps 584 mmHg 25%
    13:00 +25°C° 0 mm 3 mps 583 mmHg 24%
    14:00 +26°C° 0 mm 4 mps 583 mmHg 22%
    15:00 +25°C° 0 mm 4 mps 582 mmHg 24%
    16:00 +23°C° 0 mm 4 mps 582 mmHg 26%
    17:00 +22°C° 0 mm 4 mps 582 mmHg 27%
    18:00 +20°C° 0 mm 3 mps 582 mmHg 30%
    19:00 +19°C° 0 mm 2 mps 582 mmHg 34%
    20:00 +18°C° 0 mm 1 mps 582 mmHg 37%
    21:00 +16°C° 0 mm 1 mps 582 mmHg 42%
    22:00 +16°C° 0 mm 1 mps 581 mmHg 47%
    23:00 +15°C° 0 mm 1 mps 581 mmHg 52%
    Show more